Погода в Озерском

Россия / Сахалинская область     46°36′37″N   143°07′33″E
темп.,
°C
ветер,
м/с
пор.,
м/с
влажн.,
%
обл.,
%
осадки,
мм/ч
давл.,
гПа
погр.,
м
13 мая, чт
чт1323:00+2ююв4688100 0.0 102197
02:00+2ююв4690100 0.0 1021120
05:00+3ююв3383100 0.0 101929
08:00+3ю3484100 0.0 101878
11:00+3ю3492100 0.7 101788
14:00+3ю349345 0.0 101687
17:00+4ю469143 0.0 1014151
20:00+4ю58899 0.0 1014107
14 мая, пт
пт1423:00+4ююв45905 0.0 101440
02:00+4ю579314 0.0 101374
05:00+4ююз469597 0.0 101267
08:00+4ююз479631 0.0 101290
11:00+6ююз699388 0.1 1012163
14:00+6ю798995 0.3 1011159
17:00+6ю688843 0.4 1011138
20:00+5ююв339214 0.0 101247
15 мая, сб
сб1523:00+4ссв459843 0.0 101449
02:00+3св449991 0.0 101582
05:00+3св229766 0.0 101557
08:00+3вюв2295100 0.0 101645
11:00+4ю5692100 0.0 1017196
14:00+4ю6990100 0.1 1015225
17:00+3ю6995100 0.3 1014175
20:00+7юв71291100 2.1 1010155
16 мая, вс
вс1623:00+6ююв91892100 2.8 1010285
02:00+5ююв71390100 1.1 1007173
05:00+5ююз71398100 4.8 1006244
08:00+5юз610100100 4.8 1006150
11:00+5юз69100100 6.6 1006118
14:00+5ююз7109880 0.0 1005148
17:00+6юз71289100 0.0 1004180
20:00+5ююз51097100 0.0 1005128
17 мая, пн
пн1723:00+5ю48100100 0.0 1005117
02:00+4ю4610098 0.1 100489
05:00+4ю579998 0.1 100391
08:00+4ююз449883 0.0 100361
11:00+5ююз579476 0.0 1003117
14:00+6ююз578956 0.0 1003107
17:00+6ююз239176 0.2 100177
20:00+6в119340 0.0 100312